YZ-1 R/B, 43584

Orbit data source: Space-Track

YZ-1 R/B, 43584 is space debris originally from a launch on Sun, 29 Jul 2018 UTC launched from the Xichang Space Center, China (XSC). Debris objects in space refer to the collection of defunct objects orbiting the Earth. Examples of debris include non-operational satellites, rocket bodies, and fragments generated from explosions, collisions, or faulty payload assembly.

Loading next visibility...
Identifier
43584, 2018-062D
Orbit
Active
Country
Flag of CNCN / PRC
Related business
Manufacturer
CALT
Mission
Spacecraft
Bus & Motor
YZ-1, Unknown motor
Mass
~2,075 kg wet, ~2,075 kg dry
Launch date (UTC)
2018-07-29 (7 years ago)
Launch vehicle
Unknown
Launch site
Xichang Space Center, China (XSC)
Object type
Payload
Rocket body
Debris
Shape & HBR
Double Cone, 2.0 m
Radar Cross Section
5.890 m², Large (>1 m²)

Expand to show TLE details & history
Last TLE update: 16 hours ago

TLE from 16 hours ago
0 YZ-1 R/B
1 43584U 18062D   25260.62007625 -.00000026  00000-0  00000-0 0  9993
2 43584  54.0365 199.0757 0042569  45.2103 315.1052  1.78871043 46644
Epoch: 2025-09-17T14:52Z
TLE epoch observation values (Epoch: 2025-09-17T14:52:54.587Z)
Latitude
-0.00002°
Longitude
-20.95521°
Altitude
22,202.436 km
Speed
3.74 km/s
True Right ascension
13h 16m 15s
True Declination
0° 00' 00"
Sunlit
Object was in daylight at epoch
Visualization orbit readout
Latitude
Unknown
Longitude
Unknown
Altitude
Unknown
Speed
Unknown
Apparent Right ascension
Unknown
Apparent Declination
Unknown
Sunlit
N/A
Visualization observer readout
Local Sidereal Time
23:20:52
Azimuth
Unknown
Elevation
Unknown
Doppler factor
Unknown
Orbital elements
Apogee altitude
22,410.469 km
Perigee altitude
22,166.408 km
Semi-major axis
28,666.576 km
Eccentricity
0.00426
Inclination
54.0365°
RAAN
199.0757°
Arg. of periapsis
45.2103°
True anomaly
314.7596°
Mean anomaly
315.1052°
Eccentric anomaly
314.93253°
Mean motion
0.44718 °/min
Orbital period
805.05 mins
BSTAR
0
Loading maneuver chart data...
Computing Atmospheric mass density...
Loading historical data...
Loading historical data...
Loading historical data...
Loading historical data...
Loading historical data...
Loading historical data...
Loading historical data...
Other satellites on launch #62 in the year 2018 (2018-07-29 UTC)

Documentation

Showing up to 5 results
|